Theta_e
293 292 292 291 291 292 291 290 290 290 290 289 289 289 288 289 289 289 289 290 290 289 289 289 289 288 289 288 288 288 287 287 286 287 286 286 286 286 286 286 286 286
291 291 291 291 291 291 291 291 290 290 289 289 289 289 289 290 290 290 289 289 289 288 288 288 288 287 287 286 286 286 286 286 286 287 285 285 285 286 285 286 285 286
292 292 291 290 290 290 290 290 290 290 289 289 289 289 290 290 289 289 288 287 287 287 287 287 286 286 285 285 285 285 285 285 285 286 285 285 285 285 285 285 285 285
291 291 290 290 290 290 290 290 290 290 289 289 288 289 289 289 288 287 287 286 286 286 286 286 285 285 285 284 284 284 284 284 284 285 284 283 284 284 284 284 284 284
290 290 290 290 291 291 290 289 289 289 288 288 288 288 287 287 286 286 285 285 285 284 284 284 284 284 284 283 283 283 283 283 284 283 282 282 283 283 283 283 283 283
290 290 291 290 290 290 289 288 288 288 288 287 286 286 286 286 285 284 284 283 283 283 283 283 282 282 282 282 282 282 282 282 282 282 281 281 282 282 283 283 282 282
290 290 289 289 289 289 288 287 287 286 286 286 286 285 284 284 283 283 282 282 282 282 282 281 281 281 281 281 281 280 280 281 281 281 280 280 281 281 282 282 281 281
289 289 289 288 288 287 286 286 285 285 285 285 284 284 283 282 282 282 281 281 281 281 280 280 280 280 280 280 279 279 279 280 280 279 279 279 279 279 280 281 281 280
287 287 287 287 286 285 285 284 284 284 283 283 282 282 282 282 281 280 280 280 280 280 279 279 279 279 279 278 278 278 277 278 278 278 278 278 278 278 279 279 279 279
287 286 286 285 284 284 283 283 283 282 282 281 281 281 280 281 280 279 279 279 279 278 278 278 278 278 277 277 277 277 277 277 277 277 277 277 277 278 278 278 278 278
285 285 285 284 284 283 282 282 281 281 280 279 279 279 279 279 279 279 278 278 277 277 277 277 277 276 276 276 277 276 276 276 276 276 277 277 277 277 278 277 277 277
284 284 284 283 282 281 281 281 280 279 279 279 278 278 278 278 277 277 277 276 276 276 276 276 276 275 275 275 275 275 275 276 276 276 276 277 277 277 277 277 277 276
283 283 283 282 281 281 280 279 278 278 277 277 277 277 277 276 276 276 276 276 276 275 275 275 274 275 275 275 275 274 275 275 275 276 276 276 276 276 276 276 276 276
283 283 282 281 280 279 278 278 277 277 276 276 276 276 275 275 275 274 275 275 275 274 274 274 274 274 274 274 274 273 274 274 275 275 275 275 275 275 276 276 276 275
282 281 281 279 278 278 277 276 276 276 275 275 275 275 275 274 274 274 274 274 274 274 273 273 273 273 273 273 272 273 274 274 274 274 274 274 274 274 274 275 275 275
281 280 279 278 277 276 276 275 275 275 274 274 274 274 274 273 273 273 273 273 272 273 273 273 273 273 273 274 275 274 274 274 273 273 273 273 273 273 273 274 274 274
280 279 278 277 276 275 275 274 274 274 273 273 273 273 272 272 273 272 272 272 272 271 271 272 272 272 273 274 275 276 274 273 273 273 273 273 273 272 272 272 273 273
279 278 277 276 275 274 273 273 272 272 272 272 272 271 271 271 271 271 271 271 271 271 271 271 271 272 274 274 274 275 275 273 273 272 272 272 272 272 272 272 272 272
278 277 275 274 273 273 272 271 271 271 271 270 270 270 270 271 271 270 270 270 270 270 269 270 270 272 273 273 274 274 275 274 272 272 271 271 271 271 271 271 270 270
277 275 274 273 272 271 271 270 270 270 270 270 270 270 270 269 269 269 269 269 269 268 268 269 269 270 272 272 273 274 274 274 272 272 271 271 270 270 270 269 269 269
275 274 273 272 270 270 270 270 269 269 269 270 270 269 269 269 268 268 268 267 267 267 267 267 267 270 271 272 273 273 274 274 271 270 270 269 269 269 269 269 269 269
274 273 272 271 270 269 269 270 269 268 268 269 268 268 269 268 268 268 266 266 266 266 265 265 266 269 270 271 272 273 274 271 269 269 268 269 269 269 269 270 270 269
273 272 271 270 269 269 268 268 268 267 268 268 267 267 267 267 266 266 266 265 265 265 264 264 265 267 269 270 271 272 271 269 269 268 268 268 268 269 269 270 270 270
272 271 270 269 268 268 267 268 267 268 267 267 266 266 266 266 266 265 265 265 264 264 264 263 263 266 269 270 271 271 271 269 268 268 268 268 268 269 269 270 270 272
270 270 269 267 267 267 266 266 266 266 267 265 265 265 265 265 265 264 264 264 264 264 264 264 263 265 267 269 270 271 270 269 269 268 268 268 268 268 269 270 270 271
269 268 267 266 266 266 265 265 266 265 264 265 264 264 264 264 264 264 262 263 263 263 263 264 263 264 265 268 270 271 271 270 269 268 267 268 268 268 268 269 270 270
Wind_Speed
9 8 8 8 8 8 8 8 8 8 7 6 6 6 6 5 5 6 6 6 6 6 6 6 6 6 5 5 6 5 4 5 5 4 5 5 5 4 4 5 5 5
10 9 8 8 8 7 7 7 7 7 7 7 6 5 5 4 5 5 5 6 6 6 6 6 6 6 6 5 6 5 4 5 5 3 5 6 5 5 5 5 6 5
9 9 9 9 8 9 8 7 7 7 6 6 5 5 4 4 4 5 5 5 5 6 6 6 6 6 6 6 6 5 5 5 5 5 5 5 5 5 5 6 5 5
9 9 8 8 8 8 7 6 6 6 5 5 5 4 4 3 4 4 4 5 4 5 5 5 5 5 5 5 5 5 5 5 4 4 5 5 5 5 5 5 6 6
8 8 8 7 7 7 7 7 7 6 5 5 4 4 4 4 4 4 4 4 4 5 5 5 5 5 5 5 5 5 5 4 4 5 6 6 5 5 5 5 6 7
8 7 7 7 7 7 7 7 6 5 5 4 4 3 3 3 3 3 4 4 4 4 4 5 5 5 5 5 5 4 5 4 5 6 6 6 6 5 5 5 7 7
8 7 8 7 8 8 7 6 5 5 3 3 2 2 2 2 3 3 3 3 4 4 4 4 4 5 5 5 5 5 6 6 6 6 7 7 7 7 6 6 7 8
8 7 7 7 7 7 6 5 4 3 2 1 2 2 2 2 2 2 3 3 3 3 4 4 4 5 5 5 6 6 6 5 6 7 8 8 7 8 7 6 7 8
7 6 6 7 7 6 6 5 4 3 2 2 2 1 1 1 1 2 2 3 3 3 4 4 5 5 5 5 6 6 7 7 6 7 8 9 9 9 9 8 9 9
7 7 7 6 6 5 5 4 4 3 2 2 1 1 1 1 1 1 2 3 3 4 4 4 5 5 5 5 6 6 7 8 8 8 8 8 9 9 9 9 9 10
7 7 6 6 5 5 5 4 4 3 3 2 2 1 1 1 1 2 2 3 3 4 4 5 5 5 6 6 5 6 7 7 8 8 8 9 9 9 9 9 9 10
7 7 7 6 6 5 5 4 4 3 3 2 2 1 1 2 2 3 3 3 4 4 4 4 5 5 6 6 6 7 7 8 8 8 9 9 9 9 9 9 9 10
6 7 6 6 6 5 4 4 3 3 3 3 2 2 2 2 3 4 3 3 3 4 4 4 4 5 5 6 6 7 8 8 9 9 9 9 9 9 9 9 9 9
7 7 6 6 5 5 4 4 3 3 3 3 2 2 3 3 3 3 3 3 3 3 4 3 4 5 5 5 6 7 8 8 8 9 10 9 10 10 9 9 9 10
7 6 5 5 5 4 4 3 3 3 3 3 3 3 2 3 2 2 2 3 3 3 4 4 4 4 3 5 7 8 8 9 9 9 9 10 10 10 9 9 9 9
7 6 6 6 5 4 3 3 3 3 3 3 3 3 2 2 2 2 2 3 4 4 4 3 4 3 4 9 10 8 10 9 9 9 9 10 10 11 11 10 10 10
7 7 6 6 5 4 3 3 3 2 3 3 3 2 2 2 3 3 3 3 3 4 4 4 4 4 9 11 11 13 10 10 10 10 10 10 10 10 11 11 10 11
7 7 7 6 4 3 2 2 2 2 2 2 2 2 2 2 3 3 3 3 3 4 4 5 5 8 11 11 12 14 13 10 10 9 9 9 9 10 10 10 11 11
7 6 5 5 4 3 3 2 2 3 3 3 2 2 1 1 2 2 2 3 3 5 5 6 6 9 11 12 13 14 15 13 9 9 10 10 10 10 10 10 10 11
7 6 5 5 4 4 3 3 3 3 3 2 2 1 1 0 0 1 2 2 4 5 6 6 7 8 12 13 14 15 15 13 9 10 10 10 10 10 10 10 11 11
7 6 6 5 5 4 3 3 3 3 3 2 1 1 1 1 0 1 1 2 4 5 5 6 6 10 11 13 14 15 15 13 8 8 8 8 9 9 10 11 12 11
6 6 6 5 5 4 4 4 4 3 3 2 1 1 1 1 1 1 2 3 4 4 6 7 7 10 12 13 14 14 16 8 7 8 8 9 9 10 10 10 11 12
6 7 6 6 5 5 4 4 4 3 3 2 2 1 2 1 2 2 2 2 4 4 5 7 6 8 12 13 14 15 11 7 7 7 7 8 9 10 10 10 11 12
6 6 7 6 5 5 5 4 4 3 3 2 2 2 2 2 2 2 2 3 3 4 5 6 6 8 12 13 13 13 11 8 7 6 8 8 9 9 9 10 12 20
6 6 6 6 6 5 4 4 4 3 3 2 2 2 2 2 2 2 2 2 3 4 7 8 7 8 10 11 13 12 10 6 6 6 8 8 8 9 10 11 12 13
6 6 6 6 6 5 4 4 3 3 3 3 2 1 1 1 1 1 2 3 4 4 5 5 6 6 6 12 12 12 12 7 6 6 8 9 9 10 10 10 11 11
Wind_Direction
97 97 94 89 85 84 81 81 79 75 70 68 64 60 51 45 38 32 26 23 25 23 18 16 12 12 4 1 0 344 352 360 351 354 347 342 327 331 320 319 313 307
95 95 96 94 91 85 83 81 80 78 72 64 61 58 55 44 36 37 25 15 18 18 16 11 9 8 6 358 352 341 345 351 340 347 338 326 318 318 311 312 304 307
99 95 92 92 93 91 87 82 77 76 76 73 67 60 52 38 34 26 28 11 11 9 10 5 1 1 1 353 347 336 348 336 334 343 331 315 310 304 301 303 301 302
99 100 101 99 98 96 92 92 86 79 76 71 62 60 51 38 30 24 16 11 6 2 2 356 354 353 350 344 340 333 336 331 329 335 320 312 308 307 303 303 298 297
109 106 103 102 102 99 95 89 84 80 77 71 64 52 44 32 26 20 14 3 4 360 360 356 358 355 351 346 337 328 332 324 327 327 314 307 305 306 303 298 295 290
111 111 111 109 104 100 94 90 88 89 82 76 65 51 40 32 31 18 9 6 355 357 360 355 357 352 343 339 329 329 329 326 323 322 312 306 303 303 299 293 289 290
119 116 109 104 103 101 98 95 93 89 83 92 87 68 46 25 40 9 4 356 347 357 359 348 353 345 338 338 333 330 329 323 319 318 313 308 307 303 298 295 295 291
114 107 106 108 108 103 101 104 103 98 105 112 110 93 75 42 33 4 355 351 352 357 0 348 349 344 340 342 333 328 328 322 316 316 311 305 304 300 300 300 298 295
113 112 114 114 109 107 112 118 121 118 123 119 91 84 91 84 29 358 354 356 357 1 354 353 351 347 342 337 330 326 322 319 314 311 307 304 302 299 300 301 299 298
121 124 121 118 116 120 134 142 145 139 125 119 107 98 109 70 38 3 10 356 5 5 356 351 355 345 337 333 329 326 322 315 311 306 302 299 298 299 303 303 301 301
129 130 131 136 138 141 149 149 152 146 132 125 102 110 107 91 26 30 23 14 10 0 359 352 351 342 333 329 327 322 315 309 304 302 298 298 298 297 299 300 299 298
140 140 148 154 151 149 153 159 151 141 139 123 116 103 79 45 54 25 16 19 2 5 357 351 344 334 326 323 323 320 314 307 303 300 299 297 297 296 299 301 299 299
146 151 156 158 157 153 157 159 153 137 125 116 87 76 59 43 33 25 8 13 357 3 350 345 333 325 321 325 328 324 315 309 307 305 301 300 298 300 302 299 299 299
152 155 157 155 146 149 160 160 147 127 112 100 84 63 57 40 28 17 1 359 3 355 344 337 329 322 322 332 331 322 315 311 309 306 305 303 302 302 302 300 300 299
147 149 151 144 148 155 160 152 125 111 101 91 70 66 49 49 24 10 3 3 359 350 341 332 321 318 328 336 325 318 315 311 308 306 305 303 304 303 300 299 297 296
149 153 156 151 152 157 146 139 128 117 105 92 79 70 54 46 17 10 20 3 351 340 336 324 315 304 305 310 310 310 311 306 305 302 303 304 302 301 300 299 299 299
152 159 154 151 145 140 133 141 131 115 105 102 96 75 61 43 13 22 15 353 341 330 321 312 300 291 299 304 306 307 307 303 301 302 300 299 299 299 299 302 301 299
157 154 149 142 136 141 147 141 120 124 117 105 88 71 43 30 19 23 355 343 329 318 306 298 295 288 295 301 305 305 304 302 300 299 300 297 296 296 298 299 299 300
153 151 141 138 143 146 150 152 142 136 116 99 80 61 36 35 30 358 335 328 311 303 297 292 284 291 296 304 305 304 304 305 299 297 295 295 295 297 297 298 299 299
150 141 137 141 144 158 160 156 138 121 95 92 102 105 103 31 299 290 295 298 303 297 287 284 285 288 297 301 304 305 306 306 301 300 296 295 296 297 295 295 295 296
144 140 140 143 153 158 157 149 136 119 120 135 128 136 161 217 241 256 265 270 278 284 282 280 275 286 297 303 305 307 308 311 309 305 298 292 293 291 292 291 291 290
145 141 143 151 155 155 158 159 147 146 139 133 130 180 201 203 234 237 252 258 265 273 278 279 282 294 302 304 306 308 314 317 309 300 296 295 293 294 291 292 290 289
147 143 149 151 154 157 164 169 156 153 144 141 146 208 200 219 225 232 243 258 264 267 274 280 285 295 300 304 308 312 317 310 304 299 297 297 295 295 295 290 292 290
143 142 145 149 155 166 170 170 153 149 146 151 177 195 210 213 233 242 241 240 254 266 272 281 285 292 298 306 311 312 313 311 305 295 292 293 294 292 292 290 283 284
136 140 145 149 159 166 170 160 155 155 138 151 187 199 216 217 225 243 242 257 257 262 274 277 281 288 298 305 311 314 316 309 305 301 296 295 299 293 282 278 278 280
135 138 145 151 157 157 161 163 146 141 161 172 173 208 204 226 239 255 266 270 270 264 262 270 280 287 291 302 308 313 315 310 301 299 295 290 282 276 279 276 273 273